DW5411 Weather Reports


Display with metric or nautical units.
time (UTC)temp
F
wind
direction
speed
MPH
gust
MPH
rain 1hr
in
rain 24hr
in
rain mn
in
humidity
%
barometer
mb
20260505011401 62 180 0.0 3.0 0.00 0.00 0.00 72 1013.9
20260505010901 63 180 2.0 3.0 0.00 0.00 0.00 71 1013.8
20260505010401 63 180 0.0 0.0 0.00 0.00 0.00 69 1013.7
20260505005901 64 180 0.0 0.0 0.00 0.00 0.00 68 1013.8
20260505005401 64 180 0.0 0.0 0.00 0.00 0.00 67 1013.7
20260505004401 66 180 0.0 0.0 0.00 0.00 0.00 66 1013.6
20260505003900 66 180 0.0 0.0 0.00 0.00 0.00 64 1013.6
20260505003400 67 180 0.0 0.0 0.00 0.00 0.00 62 1013.5
20260505002900 68 180 0.0 0.0 0.00 0.00 0.00 62 1013.4
20260505002400 69 180 0.0 0.0 0.00 0.00 0.00 59 1013.4
20260505001900 71 180 0.0 0.0 0.00 0.00 0.00 57 1013.5
20260505001400 72 180 0.0 0.0 0.00 0.00 0.00 53 1013.4
20260505000900 73 180 0.0 0.0 0.00 0.00 0.00 52 1013.5
20260505000400 74 180 0.0 2.0 0.00 0.00 0.00 51 1013.6
20260504235900 74 180 0.0 3.0 0.00 0.00 0.00 52 1013.7
20260504235359 74 180 1.0 6.0 0.00 0.00 0.00 48 1013.6
20260504234859 74 180 2.0 7.0 0.00 0.00 0.00 48 1013.4
20260504234359 75 188 5.0 7.0 0.00 0.00 0.00 47 1013.6
20260504233859 75 195 2.0 4.0 0.00 0.00 0.00 49 1013.6
20260504233359 75 196 4.0 8.0 0.00 0.00 0.00 47 1013.6
20260504232859 76 178 3.0 8.0 0.00 0.00 0.00 45 1013.7
20260504232359 76 210 4.0 7.0 0.00 0.00 0.00 45 1013.7
20260504231858 76 219 4.0 8.0 0.00 0.00 0.00 44 1013.8
20260504231358 76 209 3.0 8.0 0.00 0.00 0.00 43 1013.8
20260504230858 76 182 2.0 10.0 0.00 0.00 0.00 44 1013.7
20260504230358 77 187 6.0 10.0 0.00 0.00 0.00 41 1013.8
20260504225858 77 194 3.0 7.0 0.00 0.00 0.00 45 1013.9
20260504225358 78 205 5.0 6.0 0.00 0.00 0.00 44 1013.8
20260504224858 77 216 1.0 10.0 0.00 0.00 0.00 44 1013.7
20260504224358 77 207 2.0 10.0 0.00 0.00 0.00 44 1013.8
20260504223857 77 171 7.0 10.0 0.00 0.00 0.00 41 1013.8
20260504223358 77 194 1.0 10.0 0.00 0.00 0.00 42 1013.9
20260504222857 77 150 6.0 10.0 0.00 0.00 0.00 43 1014.0
20260504222357 77 190 7.0 10.0 0.00 0.00 0.00 41 1014.1
20260504221857 78 203 4.0 10.0 0.00 0.00 0.00 40 1014.2
20260504221357 78 180 6.0 10.0 0.00 0.00 0.00 42 1014.2
20260504220857 78 188 4.0 11.0 0.00 0.00 0.00 41 1014.2
20260504220357 78 163 4.0 11.0 0.00 0.00 0.00 41 1014.3
20260504215356 78 189 10.0 12.0 0.00 0.00 0.00 41 1014.2
20260504214356 79 211 8.0 10.0 0.00 0.01 0.00 44 1014.3
20260504213856 79 235 5.0 11.0 0.00 0.01 0.00 43 1014.3
20260504213356 79 220 6.0 11.0 0.00 0.01 0.00 42 1014.2
20260504212356 79 233 6.0 10.0 0.00 0.01 0.00 42 1014.3
20260504211856 79 221 3.0 9.0 0.00 0.01 0.00 42 1014.2
20260504211356 79 144 8.0 13.0 0.00 0.01 0.00 44 1014.3
20260504205855 79 149 6.0 11.0 0.00 0.01 0.00 44 1014.3
20260504205355 78 188 7.0 11.0 0.00 0.01 0.00 43 1014.4
20260504204355 78 238 6.0 9.0 0.00 0.01 0.00 43 1014.5
20260504203855 78 147 3.0 7.0 0.00 0.01 0.00 43 1014.5
20260504203355 77 189 1.0 8.0 0.00 0.01 0.00 44 1014.6
20260504202854 77 147 4.0 8.0 0.00 0.01 0.00 46 1014.7
20260504202354 77 225 1.0 11.0 0.00 0.01 0.00 47 1014.7
20260504201854 77 240 3.0 11.0 0.00 0.01 0.00 46 1014.8
20260504201354 78 258 7.0 10.0 0.00 0.01 0.00 43 1014.8
20260504200854 78 211 7.0 9.0 0.00 0.01 0.00 48 1015.0
20260504200354 78 113 1.0 10.0 0.00 0.01 0.00 47 1015.1
20260504195854 78 172 3.0 10.0 0.00 0.01 0.00 44 1015.2
20260504195354 78 191 1.0 10.0 0.00 0.01 0.00 42 1015.1
20260504194354 77 250 1.0 10.0 0.00 0.01 0.00 44 1015.2
20260504193853 77 186 5.0 12.0 0.00 0.01 0.00 45 1015.3
20260504193353 77 152 5.0 12.0 0.00 0.01 0.00 43 1015.3
20260504192853 77 168 9.0 9.0 0.00 0.01 0.00 48 1015.4
20260504192353 77 309 3.0 9.0 0.00 0.01 0.00 45 1015.4
20260504191853 77 234 9.0 10.0 0.00 0.01 0.00 46 1015.5
20260504191353 77 207 3.0 13.0 0.00 0.01 0.00 45 1015.7
20260504190853 77 177 6.0 13.0 0.00 0.01 0.00 50 1015.8
20260504190352 76 252 2.0 9.0 0.00 0.01 0.00 46 1015.9
20260504185852 76 161 2.0 11.0 0.00 0.01 0.00 50 1016.0
20260504184853 75 203 4.0 11.0 0.00 0.01 0.00 49 1016.0
20260504184353 76 130 5.0 11.0 0.00 0.01 0.00 48 1016.2
20260504182852 76 221 4.0 10.0 0.00 0.01 0.00 47 1016.5
20260504182352 76 174 2.0 11.0 0.00 0.01 0.00 48 1016.5
20260504181851 76 160 7.0 11.0 0.00 0.01 0.00 51 1016.4
20260504181352 76 144 3.0 9.0 0.00 0.01 0.00 53 1016.5
20260504180851 76 178 0.0 9.0 0.00 0.01 0.00 49 1016.6
20260504180351 75 197 5.0 8.0 0.00 0.01 0.00 54 1016.5
20260504175851 75 296 1.0 8.0 0.00 0.01 0.00 54 1016.6
20260504174851 75 270 3.0 12.0 0.00 0.01 0.00 52 1016.7
20260504174351 75 159 1.0 12.0 0.00 0.01 0.00 54 1016.7
20260504173851 75 129 7.0 8.0 0.00 0.01 0.00 51 1016.8
20260504173351 75 144 2.0 11.0 0.00 0.01 0.00 51 1017.0
20260504172851 74 139 5.0 11.0 0.00 0.01 0.00 54 1017.0
20260504171851 74 234 5.0 6.0 0.00 0.01 0.00 52 1017.3
20260504171350 74 198 4.0 14.0 0.00 0.01 0.00 53 1017.3
20260504170850 74 141 2.0 14.0 0.00 0.01 0.00 52 1017.4
20260504160349 71 247 4.0 9.0 0.00 0.01 0.00 59 1018.2
20260504150848 67 225 4.0 8.0 0.00 0.01 0.00 67 1018.1
20260504150348 67 194 2.0 8.0 0.00 0.01 0.00 67 1018.1
20260504140847 62 157 3.0 5.0 0.00 0.02 0.00 72 1018.7
20260504140347 61 154 1.0 4.0 0.00 0.02 0.00 73 1018.7
20260504130346 53 192 3.0 3.0 0.00 0.02 0.00 91 1018.5
20260504110344 44 219 0.0 0.0 0.00 0.02 0.00 93 1017.9
20260504100342 45 219 0.0 0.0 0.00 0.02 0.00 93 1018.1
20260504081841 46 219 0.0 1.0 0.00 0.02 0.00 91 1018.0
20260504081341 45 219 0.0 0.0 0.00 0.02 0.00 91 1018.0
20260504080840 45 219 0.0 1.0 0.00 0.02 0.00 91 1018.1
20260504080341 46 219 0.0 1.0 0.00 0.02 0.00 91 1018.1
20260504070339 47 219 0.0 3.0 0.00 0.02 0.00 90 1018.0
20260504050337 49 242 0.0 0.0 0.00 0.02 0.00 88 1018.9
20260504045837 49 243 0.0 0.0 0.00 0.02 0.00 88 1018.9
20260504045407 48 244 0.0 0.0 0.00 0.02 0.00 88 1019.0
20260504044837 48 248 0.0 0.0 0.00 0.02 0.02 87 1018.9
20260504043837 49 248 0.0 0.0 0.00 0.02 0.02 87 1018.9
20260504043336 49 248 0.0 0.0 0.00 0.02 0.02 87 1019.1
20260504042906 49 248 0.0 0.0 0.00 0.02 0.02 87 1019.1
20260504042336 49 248 0.0 0.0 0.00 0.02 0.02 86 1019.1
20260504041906 49 248 0.0 0.0 0.00 0.03 0.02 86 1019.1
20260504041406 50 248 0.0 0.0 0.00 0.03 0.02 86 1019.2
20260504040906 50 248 0.0 0.0 0.00 0.03 0.02 86 1019.2
20260504040406 50 248 0.0 0.0 0.00 0.03 0.02 86 1019.2
20260504035405 50 248 0.0 0.0 0.00 0.03 0.02 84 1019.4
20260504034905 51 248 0.0 0.0 0.00 0.03 0.02 83 1019.3
20260504033905 51 248 0.0 0.0 0.00 0.03 0.02 82 1019.3
20260504033405 51 248 0.0 0.0 0.00 0.03 0.02 81 1019.3
20260504032905 51 248 0.0 0.0 0.00 0.03 0.02 83 1019.3
20260504032405 50 248 0.0 0.0 0.00 0.03 0.02 83 1019.3
20260504031905 50 248 0.0 0.0 0.00 0.03 0.02 82 1019.2
20260504031405 50 248 0.0 0.0 0.00 0.03 0.02 83 1019.2
20260504030405 50 248 0.0 0.0 0.00 0.03 0.02 84 1019.1
20260504025404 51 248 0.0 0.0 0.00 0.03 0.02 83 1019.0
20260504024904 51 248 0.0 0.0 0.00 0.03 0.02 82 1019.0
20260504024404 51 248 0.0 0.0 0.00 0.03 0.02 80 1018.9
20260504023904 51 248 0.0 0.0 0.00 0.03 0.02 79 1019.0
20260504023334 51 248 0.0 0.0 0.00 0.03 0.02 82 1019.0
20260504022904 51 248 0.0 0.0 0.00 0.03 0.02 83 1018.9
20260504022404 51 248 0.0 0.0 0.00 0.03 0.02 82 1018.8
20260504021904 52 248 0.0 0.0 0.00 0.03 0.02 82 1018.8
20260504021403 52 248 0.0 0.0 0.00 0.03 0.02 80 1018.7
20260504020903 52 248 0.0 0.0 0.00 0.03 0.02 81 1018.6
20260504020403 52 248 0.0 0.0 0.00 0.03 0.02 80 1018.7
20260504015903 52 248 0.0 0.0 0.00 0.03 0.02 82 1018.6
20260504014903 53 248 0.0 0.0 0.00 0.03 0.02 81 1018.5
20260504014403 53 248 0.0 0.0 0.00 0.03 0.02 79 1018.4
20260504013903 53 248 0.0 0.0 0.00 0.03 0.02 79 1018.3
20260504013403 53 248 0.0 0.0 0.00 0.03 0.02 76 1018.3
20260504012903 53 248 0.0 0.0 0.00 0.03 0.02 79 1018.4
20260504012402 53 248 0.0 0.0 0.00 0.03 0.02 81 1018.4